Time,TemperatureF,DewpointF,PressureIn,WindDirection,WindDirectionDegrees,WindSpeedMPH,WindSpeedGustMPH,Humidity,HourlyPrecipIn,Conditions,Clouds,dailyrainin,SolarRadiationWatts/m^2,SoftwareType,DateUTC
2013-01-06 14:33:00,51.0,5.0,-100.00,SSW,199,8.0,19.0,15,0.00,,,0.00,423.000000,,2013-01-06 21:33:00,
2013-01-06 14:42:00,51.0,5.0,-100.00,SSW,199,8.0,19.0,15,0.00,,,0.00,423.000000,,2013-01-06 21:42:00,
2013-01-06 14:52:00,51.0,5.0,-100.00,SSW,199,8.0,19.0,15,0.00,,,0.00,423.000000,,2013-01-06 21:52:00,
2013-01-06 15:22:00,51.0,6.0,-100.00,SSW,192,3.0,17.0,16,0.00,,,0.00,151.000000,,2013-01-06 22:22:00,
2013-01-06 15:33:00,51.0,6.0,-100.00,SSW,192,3.0,17.0,16,0.00,,,0.00,151.000000,,2013-01-06 22:33:00,
2013-01-06 15:43:00,51.0,6.0,-100.00,SSW,192,3.0,17.0,16,0.00,,,0.00,151.000000,,2013-01-06 22:43:00,
2013-01-06 15:52:00,51.0,6.0,-100.00,SSW,192,3.0,17.0,16,0.00,,,0.00,151.000000,,2013-01-06 22:52:00,
2013-01-06 16:22:00,44.0,7.0,-100.00,SW,220,2.0,10.0,21,0.00,,,0.00,64.000000,,2013-01-06 23:22:00,
2013-01-06 16:33:00,44.0,7.0,-100.00,SW,220,2.0,10.0,21,0.00,,,0.00,64.000000,,2013-01-06 23:33:00,
2013-01-06 16:43:00,44.0,7.0,-100.00,SW,220,2.0,10.0,21,0.00,,,0.00,64.000000,,2013-01-06 23:43:00,
2013-01-06 16:52:00,44.0,7.0,-100.00,SW,220,2.0,10.0,21,0.00,,,0.00,64.000000,,2013-01-06 23:52:00,
2013-01-06 17:23:00,33.0,14.0,-100.00,NNW,342,3.0,6.0,45,0.00,,,0.00,10.000000,,2013-01-07 00:23:00,
2013-01-06 17:33:00,33.0,14.0,-100.00,NNW,342,3.0,6.0,45,0.00,,,0.00,10.000000,,2013-01-07 00:33:00,
2013-01-06 17:42:00,33.0,14.0,-100.00,NNW,342,3.0,6.0,45,0.00,,,0.00,10.000000,,2013-01-07 00:42:00,
2013-01-06 17:52:00,33.0,14.0,-100.00,NNW,342,3.0,6.0,45,0.00,,,0.00,10.000000,,2013-01-07 00:52:00,
2013-01-06 18:23:00,29.0,16.0,-100.00,NNW,336,3.0,5.0,58,0.00,,,0.00,0.000000,,2013-01-07 01:23:00,
2013-01-06 18:32:00,29.0,16.0,-100.00,NNW,336,3.0,5.0,58,0.00,,,0.00,0.000000,,2013-01-07 01:32:00,
2013-01-06 18:42:00,29.0,16.0,-100.00,NNW,336,3.0,5.0,58,0.00,,,0.00,0.000000,,2013-01-07 01:42:00,
2013-01-06 18:52:00,29.0,16.0,-100.00,NNW,336,3.0,5.0,58,0.00,,,0.00,0.000000,,2013-01-07 01:52:00,
2013-01-06 19:22:00,26.0,15.0,-100.00,SSE,165,2.0,6.0,62,0.00,,,0.00,0.000000,,2013-01-07 02:22:00,
2013-01-06 19:32:00,26.0,15.0,-100.00,SSE,165,2.0,6.0,62,0.00,,,0.00,0.000000,,2013-01-07 02:32:00,
2013-01-06 19:42:00,26.0,15.0,-100.00,SSE,165,2.0,6.0,62,0.00,,,0.00,0.000000,,2013-01-07 02:42:00,
2013-01-06 19:52:00,26.0,15.0,-100.00,SSE,165,2.0,6.0,62,0.00,,,0.00,0.000000,,2013-01-07 02:52:00,
2013-01-06 20:22:00,26.0,16.0,-100.00,NW,322,1.0,4.0,64,0.00,,,0.00,0.000000,,2013-01-07 03:22:00,
2013-01-06 20:33:00,26.0,16.0,-100.00,NW,322,1.0,4.0,64,0.00,,,0.00,0.000000,,2013-01-07 03:33:00,
2013-01-06 20:43:00,26.0,16.0,-100.00,NW,322,1.0,4.0,64,0.00,,,0.00,0.000000,,2013-01-07 03:43:00,
2013-01-06 20:52:00,26.0,16.0,-100.00,NW,322,1.0,4.0,64,0.00,,,0.00,0.000000,,2013-01-07 03:52:00,
2013-01-06 21:12:00,25.0,15.0,-100.00,NW,310,2.0,4.0,65,0.00,,,0.00,0.000000,,2013-01-07 04:12:00,
2013-01-06 21:22:00,25.0,15.0,-100.00,NW,310,2.0,4.0,65,0.00,,,0.00,0.000000,,2013-01-07 04:22:00,
2013-01-06 21:32:00,25.0,15.0,-100.00,NW,310,2.0,4.0,65,0.00,,,0.00,0.000000,,2013-01-07 04:32:00,
2013-01-06 21:42:00,25.0,15.0,-100.00,NW,310,2.0,4.0,65,0.00,,,0.00,0.000000,,2013-01-07 04:42:00,
2013-01-06 21:52:00,25.0,15.0,-100.00,NW,310,2.0,4.0,65,0.00,,,0.00,0.000000,,2013-01-07 04:52:00,
2013-01-06 22:22:00,26.0,16.0,-100.00,NW,316,2.0,4.0,66,0.00,,,0.00,0.000000,,2013-01-07 05:22:00,
2013-01-06 22:33:00,26.0,16.0,-100.00,NW,316,2.0,4.0,66,0.00,,,0.00,0.000000,,2013-01-07 05:33:00,
2013-01-06 22:42:00,26.0,16.0,-100.00,NW,316,2.0,4.0,66,0.00,,,0.00,0.000000,,2013-01-07 05:42:00,
2013-01-06 22:52:00,26.0,16.0,-100.00,NW,316,2.0,4.0,66,0.00,,,0.00,0.000000,,2013-01-07 05:52:00,
2013-01-06 23:22:00,26.0,17.0,-100.00,NNW,340,1.0,4.0,67,0.00,,,0.00,0.000000,,2013-01-07 06:22:00,
2013-01-06 23:32:00,26.0,17.0,-100.00,NNW,340,1.0,4.0,67,0.00,,,0.00,0.000000,,2013-01-07 06:32:00,
2013-01-06 23:42:00,26.0,17.0,-100.00,NNW,340,1.0,4.0,67,0.00,,,0.00,0.000000,,2013-01-07 06:42:00,
2013-01-06 23:52:00,26.0,17.0,-100.00,NNW,340,1.0,4.0,67,0.00,,,0.00,0.000000,,2013-01-07 06:52:00,